Wind_Speed
37 36 35 34 36 37 37 38 41 42 46 46 47 45 43 42 45 44 43 43 39 31 20 28 34 34 33 38 37 30 29 29 36 41 38 37 37 43
37 35 34 34 37 36 38 41 42 46 47 47 44 41 41 42 39 38 38 36 33 26 22 25 35 35 32 33 31 34 32 31 33 37 38 39 35 39
36 35 34 35 37 37 40 41 43 46 47 43 39 38 38 35 33 34 32 32 32 30 30 31 32 32 34 32 31 29 30 30 32 35 33 34 34 35
35 34 35 36 37 38 38 40 42 45 41 37 35 33 31 29 30 30 30 31 32 32 32 35 37 37 34 32 28 27 25 26 28 30 32 34 34 35
33 33 34 36 37 37 39 41 43 39 36 35 34 31 30 32 32 33 34 34 35 35 36 36 36 34 29 28 25 26 27 29 29 32 34 36 39 42
32 32 33 35 35 36 39 41 38 35 35 32 30 31 32 33 33 34 35 36 38 39 40 41 41 40 38 36 34 34 33 35 36 37 36 37 40 43
31 31 32 33 35 38 39 36 34 33 32 31 32 33 33 34 35 36 38 39 40 41 43 44 44 44 44 42 41 40 38 39 41 41 41 41 42 43
29 29 31 32 36 38 36 32 32 31 31 32 32 33 34 34 37 38 40 40 42 43 45 43 43 43 43 41 41 40 41 43 43 45 45 45 46 47
29 30 31 34 35 35 32 31 31 31 33 33 33 34 35 36 38 40 41 42 44 45 45 42 43 43 42 42 43 44 44 44 45 45 46 47 48 48
28 29 32 33 33 31 30 30 32 34 34 34 35 36 37 39 40 41 42 44 46 44 42 41 39 41 42 44 47 48 48 47 48 48 48 48 48 46
27 29 31 32 30 29 29 30 32 33 34 35 36 37 38 40 41 43 44 47 48 43 41 42 45 46 46 46 48 50 51 52 52 51 50 49 48 46
27 28 31 29 29 29 30 32 32 34 35 36 37 38 40 42 44 45 47 50 47 44 44 43 46 48 49 51 53 55 55 55 54 54 52 51 49 46
26 28 27 26 27 29 30 32 33 35 36 37 38 40 42 43 45 48 49 52 49 46 45 46 50 52 54 57 62 63 60 60 58 57 54 49 45 43
27 26 26 27 28 29 31 33 35 36 38 38 40 41 44 46 47 49 52 55 50 47 47 50 54 59 63 60 57 58 54 51 49 46 43 41 40 39
27 27 28 28 29 31 33 34 36 37 39 39 42 44 46 47 48 50 55 55 49 48 49 54 60 59 57 52 47 46 46 41 42 38 34 33 36 37
26 27 29 30 31 32 34 35 37 39 40 41 43 45 47 48 50 52 57 55 50 48 50 55 54 52 48 39 32 31 33 31 30 27 27 31 35 36
27 29 30 30 30 32 34 36 39 41 42 42 44 46 48 49 50 54 58 52 48 47 52 52 46 43 38 29 22 20 18 17 16 22 26 27 30 32
26 28 30 29 30 33 35 38 41 42 42 44 46 47 50 49 51 54 54 48 48 47 49 49 42 36 27 19 11 13 15 17 22 24 24 22 23 28
30 31 31 33 34 35 38 41 44 45 44 45 46 49 49 48 52 56 49 49 49 46 48 46 38 31 24 18 20 18 17 20 21 23 24 23 22 23
31 32 33 35 37 39 41 44 45 46 45 45 47 49 50 49 53 53 48 49 48 47 48 46 38 32 28 23 23 26 25 24 25 25 26 25 23 23
35 36 36 38 40 43 46 47 47 46 45 46 47 49 49 50 53 51 49 50 47 46 46 46 43 37 33 31 29 31 34 33 30 29 30 28 25 23
38 38 39 41 43 47 50 47 46 44 45 46 47 49 49 50 52 51 50 49 48 47 46 47 45 42 39 36 35 34 36 39 39 37 36 34 29 23
40 41 43 46 49 50 47 45 44 44 45 47 48 49 50 51 53 52 51 51 50 49 49 48 48 46 43 41 40 40 39 39 41 40 41 43 37 31
Wind_Direction
286 286 287 291 298 299 298 299 301 302 307 306 304 302 300 302 308 311 316 322 320 306 312 298 296 308 311 309 311 311 293 279 253 260 258 259 276 254
284 286 288 294 298 298 299 302 302 305 307 306 303 302 301 304 307 309 315 322 328 302 299 308 295 293 293 292 289 290 281 277 275 277 274 274 269 267
281 282 287 294 299 299 300 301 303 305 306 306 304 301 302 302 305 306 315 320 322 320 314 307 303 298 293 286 281 271 271 271 271 270 266 266 266 265
279 282 289 294 297 300 301 304 306 306 306 306 305 303 302 305 306 306 311 315 315 310 305 300 297 295 293 291 277 273 271 268 269 268 270 270 271 269
278 284 290 294 296 300 303 305 306 306 305 305 305 302 303 306 305 306 307 308 306 304 303 302 301 301 296 289 283 280 274 277 273 274 276 273 273 274
281 285 290 294 298 304 304 305 304 303 304 306 304 302 305 307 307 306 306 307 306 303 302 300 298 297 296 292 287 285 283 279 279 277 276 276 276 276
283 286 293 298 303 303 302 301 302 304 306 305 303 304 305 307 307 307 307 307 307 305 302 300 297 296 294 292 289 287 286 283 285 279 279 280 283 285
283 290 295 301 302 300 299 301 304 305 306 305 305 303 306 309 311 308 310 309 308 306 304 301 296 294 292 292 288 286 286 287 288 288 287 289 290 288
285 291 299 299 298 298 300 303 302 303 305 304 304 305 308 310 313 315 313 312 311 306 304 299 297 295 294 292 290 289 289 288 288 286 286 286 287 286
287 295 296 297 299 297 299 301 303 304 305 307 307 309 311 313 315 315 315 316 315 309 304 300 298 296 293 290 288 287 288 286 285 285 285 284 284 288
290 293 296 297 295 296 300 301 303 304 306 308 309 312 313 315 316 316 318 322 319 312 306 302 300 297 294 291 288 286 285 284 284 284 284 284 286 286
289 294 295 296 297 298 300 302 304 306 308 309 311 312 315 316 316 318 321 324 317 310 307 305 304 302 299 296 292 288 286 284 283 283 283 284 284 282
291 293 295 296 297 299 301 304 306 306 308 309 311 312 314 316 317 319 320 324 320 311 308 307 307 304 301 296 291 286 282 280 279 279 280 282 280 277
288 291 295 298 300 302 304 306 307 308 309 310 310 312 314 317 318 319 321 322 317 313 311 312 309 306 303 297 288 283 281 280 282 283 283 281 281 281
287 291 294 296 299 302 304 307 310 309 308 309 312 313 316 317 317 318 321 322 316 314 315 315 315 313 309 300 289 282 279 281 280 281 283 284 285 286
288 290 293 296 299 302 306 309 310 309 308 309 310 314 317 317 317 318 321 320 317 316 317 321 322 320 315 308 297 286 284 279 280 283 285 287 288 288
287 291 294 296 302 305 307 309 309 309 307 306 310 315 318 318 317 319 321 319 318 318 321 326 327 324 323 316 310 305 293 288 282 287 295 295 289 286
289 293 295 299 302 305 309 309 307 307 306 308 310 314 317 316 317 321 321 319 319 319 323 328 327 324 327 329 327 301 298 291 293 295 300 300 292 289
293 294 294 296 301 306 309 309 307 306 307 307 310 313 316 316 317 321 319 319 320 319 323 328 324 317 316 311 306 311 307 303 304 305 308 310 302 298
293 294 295 299 302 305 307 308 306 305 306 308 310 312 315 317 318 321 320 320 320 320 322 325 323 310 304 298 291 298 303 301 303 305 308 311 309 302
291 295 298 301 304 308 308 307 306 305 306 308 310 313 315 316 318 322 321 321 319 319 319 322 320 313 302 297 291 288 295 299 299 300 301 302 304 304
288 294 298 300 306 307 305 304 304 305 306 308 311 313 315 315 316 318 319 319 318 317 317 317 317 311 303 296 290 287 284 289 293 295 298 299 300 296
289 294 299 303 304 304 304 304 303 302 306 308 310 311 314 314 314 315 315 316 315 315 314 313 313 311 303 296 292 286 285 284 284 288 293 294 295 297
Height
5762 5760 5759 5757 5755 5752 5750 5747 5744 5742 5738 5733 5727 5721 5716 5712 5707 5701 5695 5687 5677 5672 5670 5668 5670 5670 5670 5668 5668 5669 5668 5667 5668 5669 5670 5670 5669 5674
5753 5751 5750 5749 5746 5743 5741 5737 5734 5731 5728 5723 5716 5711 5707 5703 5698 5694 5688 5680 5673 5669 5666 5665 5665 5664 5662 5660 5658 5659 5659 5656 5656 5655 5656 5657 5656 5659
5744 5743 5741 5739 5737 5735 5732 5729 5725 5721 5716 5711 5707 5702 5698 5695 5691 5687 5681 5674 5669 5664 5661 5658 5656 5655 5653 5650 5648 5647 5646 5645 5644 5644 5644 5645 5645 5646
5735 5734 5733 5731 5729 5726 5723 5719 5715 5710 5706 5702 5698 5694 5691 5687 5684 5679 5674 5669 5664 5660 5656 5653 5649 5646 5644 5641 5639 5638 5636 5635 5634 5634 5634 5633 5633 5634
5726 5725 5724 5722 5720 5717 5714 5710 5706 5701 5697 5693 5690 5687 5683 5680 5676 5671 5666 5662 5658 5653 5649 5644 5641 5637 5634 5633 5632 5630 5629 5627 5627 5625 5623 5623 5622 5622
5717 5716 5715 5713 5711 5708 5705 5700 5696 5693 5689 5685 5682 5679 5675 5671 5667 5663 5658 5654 5649 5645 5640 5636 5632 5628 5625 5623 5622 5620 5618 5617 5615 5613 5611 5608 5608 5608
5709 5708 5706 5704 5702 5699 5696 5691 5688 5685 5681 5677 5674 5671 5667 5663 5659 5655 5650 5645 5640 5635 5630 5626 5621 5617 5614 5611 5608 5605 5604 5602 5600 5597 5595 5594 5593 5591
5700 5699 5697 5695 5693 5690 5687 5683 5680 5677 5674 5670 5666 5663 5659 5655 5650 5645 5640 5635 5631 5625 5618 5614 5609 5606 5603 5600 5596 5594 5591 5589 5585 5582 5580 5578 5575 5573
5692 5691 5689 5687 5685 5682 5679 5675 5673 5669 5666 5662 5658 5654 5650 5646 5641 5635 5629 5624 5619 5612 5607 5603 5598 5594 5591 5587 5583 5580 5578 5575 5572 5569 5566 5564 5561 5559
5684 5682 5681 5679 5677 5674 5671 5668 5665 5661 5658 5654 5650 5646 5641 5636 5631 5625 5619 5613 5607 5601 5596 5591 5587 5582 5579 5575 5570 5567 5564 5561 5558 5556 5552 5549 5547 5544
5676 5675 5673 5671 5668 5666 5663 5660 5657 5653 5649 5645 5641 5636 5631 5626 5620 5614 5608 5602 5595 5590 5585 5580 5574 5569 5565 5561 5556 5551 5548 5545 5542 5540 5537 5535 5532 5530
5669 5667 5666 5663 5660 5657 5655 5652 5648 5645 5641 5636 5632 5627 5621 5616 5610 5604 5597 5590 5584 5578 5573 5569 5561 5556 5550 5544 5538 5533 5530 5527 5524 5523 5521 5519 5517 5515
5661 5661 5658 5655 5653 5650 5647 5644 5640 5637 5632 5627 5622 5617 5612 5606 5600 5594 5587 5579 5572 5565 5560 5555 5547 5540 5535 5529 5518 5511 5509 5506 5505 5503 5503 5502 5500 5499
5655 5653 5650 5648 5645 5642 5639 5636 5632 5627 5623 5618 5613 5607 5602 5596 5590 5583 5576 5568 5559 5552 5546 5540 5534 5524 5515 5507 5501 5489 5488 5487 5487 5486 5487 5486 5484 5483
5646 5644 5642 5640 5637 5634 5631 5627 5623 5618 5614 5608 5603 5598 5592 5585 5579 5572 5564 5556 5547 5540 5534 5526 5516 5505 5494 5485 5481 5476 5473 5473 5472 5473 5474 5473 5472 5470
5638 5636 5634 5632 5629 5626 5623 5619 5614 5609 5604 5599 5593 5587 5581 5574 5568 5561 5553 5543 5535 5528 5521 5512 5501 5489 5478 5469 5466 5463 5461 5464 5463 5464 5465 5463 5460 5458
5630 5628 5626 5623 5621 5618 5614 5609 5605 5600 5595 5589 5583 5577 5571 5564 5558 5550 5542 5532 5524 5516 5508 5500 5490 5480 5470 5463 5458 5456 5456 5456 5458 5458 5457 5455 5451 5448
5623 5620 5618 5615 5612 5609 5605 5600 5595 5590 5585 5579 5573 5567 5560 5554 5547 5539 5531 5522 5514 5506 5499 5489 5481 5473 5466 5461 5458 5455 5453 5453 5452 5451 5449 5448 5444 5439
5614 5612 5609 5606 5603 5599 5595 5591 5586 5580 5575 5569 5563 5557 5550 5543 5536 5529 5520 5512 5503 5496 5489 5481 5474 5468 5462 5458 5454 5452 5450 5447 5446 5443 5440 5438 5436 5433
5606 5603 5600 5597 5593 5589 5585 5580 5575 5569 5564 5558 5552 5546 5540 5533 5524 5517 5509 5501 5493 5486 5479 5473 5468 5463 5458 5454 5448 5444 5443 5441 5438 5436 5433 5430 5428 5426
5596 5594 5591 5587 5583 5579 5574 5570 5564 5559 5553 5548 5542 5535 5529 5522 5513 5506 5498 5491 5484 5477 5469 5462 5457 5454 5450 5447 5444 5438 5431 5430 5429 5427 5425 5423 5422 5419
5587 5584 5581 5577 5573 5568 5564 5558 5553 5548 5543 5537 5531 5524 5517 5510 5502 5494 5487 5480 5473 5467 5460 5454 5447 5442 5438 5436 5433 5430 5425 5420 5416 5415 5413 5410 5410 5411
5576 5573 5570 5566 5562 5557 5551 5546 5541 5536 5531 5526 5519 5513 5506 5498 5490 5483 5475 5468 5461 5454 5448 5442 5435 5430 5425 5421 5418 5416 5414 5410 5407 5405 5401 5396 5397 5396